Mobile, AL

4:20 AM CST on December 16, 2017 (GMT -0600)
Mobile Regional

Weather History for KMOB - January, 2014

Change the Weather History Date:

Friday, January 10, 2014

  Actual Average Record
Temperature  
Mean Temperature 57 °F 50 °F  
Max Temperature 66 °F 60 °F 79 °F (1949)
Min Temperature 47 °F 40 °F 10 °F (1962)
Degree Days  
Heating Degree Days 8 15  
Month to date heating degree days 232 150  
Since 1 July heating degree days 910 812  
Cooling Degree Days 0 0  
Month to date cooling degree days 0 0  
Year to date cooling degree days 0 0  
Growing Degree Days 6 (Base 50)    
Moisture  
Dew Point 55 °F    
Average Humidity 92    
Maximum Humidity 100    
Minimum Humidity 84    
Precipitation  
Precipitation 0.11 in 0.19 in 2.66 in (1908)
Month to date precipitation 1.17 1.74  
Year to date precipitation 1.17 1.74  
Snow  
Snow 0.00 in 0.00 in - ()
Month to date snowfall 0.0 0.0  
Since 1 July snowfall 0.0 T  
Snow Depth 0.00 in    
Sea Level Pressure  
Sea Level Pressure 30.06 in    
Wind  
Wind Speed 6 mph (ESE)    
Max Wind Speed 17 mph    
Max Gust Speed 25 mph    
Visibility 4 miles    
Events Fog , Rain    
T = Trace of Precipitation, MM = Missing Value Source: NWS Daily Summary

Daily Weather History Graph

Daily Weather History Graph

Search for Another Location

Airport or City:

Trip Planner

Search our weather history database for the weather conditions in past years. The results will help you decide how hot, cold, wet, or windy it might be!

Date:

Astronomy

Jan. 10, 2014 Rise Set
Actual Time 6:51 AM CST 5:09 PM CST
Civil Twilight 6:25 AM CST 5:36 PM CST
Nautical Twilight 5:55 AM CST 6:05 PM CST
Astronomical Twilight 5:26 AM CST 6:35 PM CST
Moon 1:08 PM CST (1/10) 2:05 AM CST (1/10)
Length of Visible Light 11h 10m
Length of Day
10h 18m
Waxing Gibbous, 75% of the Moon is Illuminated
Jan 10
Waxing Gibbous
Jan 15
Full
Jan 23
Last Quarter
Jan 30
New
Feb 6
First Quarter

Hourly Weather History & Observations

Time (CST) Temp. Dew Point Humidity Pressure Visibility Wind Dir Wind Speed Gust Speed Precip Events Conditions
12:51 AM 48.2 °F 46.4 °F 93% 30.23 in 10.0 mi NNE 5.8 mph - N/A   Overcast
12:56 AM 48.0 °F 46.9 °F 96% 30.23 in 10.0 mi NNE 4.6 mph - N/A   Overcast
1:56 AM 46.9 °F 46.9 °F 100% 30.21 in 10.0 mi Calm Calm - N/A   Overcast
2:14 AM 46.9 °F 46.9 °F 100% 30.20 in 10.0 mi NNE 5.8 mph - N/A   Overcast
2:56 AM 46.9 °F 46.9 °F 100% 30.19 in 9.0 mi NNE 4.6 mph - N/A   Overcast
3:56 AM 46.9 °F 46.9 °F 100% 30.19 in 10.0 mi NE 4.6 mph - N/A   Overcast
4:31 AM 46.9 °F 46.9 °F 100% 30.18 in 10.0 mi ENE 4.6 mph - N/A   Overcast
4:56 AM 48.0 °F 46.9 °F 96% 30.17 in 10.0 mi ENE 4.6 mph - N/A   Overcast
5:56 AM 46.9 °F 46.9 °F 100% 30.16 in 3.0 mi NE 5.8 mph - N/A   Overcast
6:36 AM 46.9 °F 46.9 °F 100% 30.14 in 1.0 mi NE 6.9 mph - N/A   Overcast
6:47 AM 48.0 °F 48.0 °F 100% 30.14 in 2.0 mi NE 6.9 mph - N/A   Overcast
6:56 AM 48.0 °F 48.0 °F 100% 30.14 in 2.0 mi ENE 4.6 mph - N/A   Overcast
7:12 AM 48.0 °F 48.0 °F 100% 30.15 in 3.0 mi East 5.8 mph - N/A   Overcast
7:34 AM 48.0 °F 48.0 °F 100% 30.15 in 3.0 mi ENE 5.8 mph - N/A   Mostly Cloudy
7:56 AM 48.9 °F 48.9 °F 100% 30.17 in 3.0 mi ESE 6.9 mph - N/A   Overcast
8:56 AM 51.1 °F 50.0 °F 96% 30.17 in 3.0 mi East 5.8 mph - N/A   Overcast
9:56 AM 53.1 °F 51.1 °F 93% 30.17 in 3.0 mi ESE 4.6 mph - N/A   Overcast
10:10 AM 53.1 °F 52.0 °F 96% 30.16 in 2.5 mi East 4.6 mph - 0.00 in Rain Light Rain
10:35 AM 54.0 °F 53.1 °F 97% 30.14 in 3.0 mi Variable 3.5 mph - 0.00 in   Overcast
10:56 AM 55.0 °F 53.1 °F 93% 30.13 in 3.0 mi ENE 3.5 mph - 0.00 in   Overcast
11:19 AM 57.0 °F 54.0 °F 89% 30.11 in 4.0 mi ESE 4.6 mph - N/A   Overcast
11:31 AM 57.9 °F 54.0 °F 87% 30.10 in 4.0 mi ESE 4.6 mph - N/A   Overcast
11:56 AM 60.1 °F 55.0 °F 83% 30.08 in 4.0 mi SE 5.8 mph - N/A   Haze
12:29 PM 61.0 °F 55.9 °F 83% 30.06 in 7.0 mi ESE 6.9 mph - N/A   Overcast
12:56 PM 59.0 °F 57.0 °F 93% 30.04 in 4.0 mi SE 4.6 mph - 0.00 in Rain Light Rain
1:15 PM 59.0 °F 57.9 °F 96% 30.03 in 2.5 mi East 4.6 mph - 0.00 in Rain Light Rain
1:24 PM 59.0 °F 57.9 °F 96% 30.03 in 3.0 mi ESE 4.6 mph - 0.01 in Rain Light Rain
1:42 PM 60.1 °F 59.0 °F 96% 30.02 in 4.0 mi ESE 6.9 mph - 0.01 in   Overcast
1:56 PM 59.0 °F 57.9 °F 96% 30.02 in 4.0 mi ESE 5.8 mph - 0.01 in   Overcast
2:42 PM 59.0 °F 57.9 °F 96% 30.00 in 5.0 mi East 5.8 mph - 0.00 in   Overcast
2:56 PM 59.0 °F 57.9 °F 96% 30.00 in 5.0 mi ESE 6.9 mph - 0.00 in   Overcast
3:56 PM 60.1 °F 57.9 °F 93% 30.01 in 10.0 mi SE 6.9 mph - N/A   Overcast
4:56 PM 60.1 °F 59.0 °F 96% 29.99 in 10.0 mi ESE 9.2 mph - N/A   Overcast
5:56 PM 59.0 °F 59.0 °F 100% 29.99 in 9.0 mi ESE 8.1 mph - 0.01 in   Overcast
6:18 PM 57.9 °F 57.9 °F 100% 29.99 in 4.0 mi SE 9.2 mph - N/A   Overcast
6:31 PM 57.9 °F 57.9 °F 100% 29.99 in 2.0 mi SE 5.8 mph - N/A   Overcast
6:56 PM 57.9 °F 57.9 °F 100% 29.99 in 1.8 mi SE 8.1 mph - N/A   Overcast
7:34 PM 57.9 °F 57.9 °F 100% 29.98 in 0.5 mi SE 6.9 mph - 0.00 in Fog Fog
7:56 PM 57.9 °F 57.9 °F 100% 29.98 in 0.2 mi SE 6.9 mph - 0.00 in Fog Fog
8:16 PM 59.0 °F 59.0 °F 100% 29.98 in 0.5 mi SE 4.6 mph - N/A Fog Fog
8:30 PM 59.0 °F 59.0 °F 100% 29.98 in 1.5 mi SE 6.9 mph - N/A   Overcast
8:51 PM 59.0 °F 59.0 °F 100% 29.97 in 0.5 mi SSE 8.1 mph - 0.00 in Fog , Rain Light Rain
8:56 PM 59.0 °F 59.0 °F 100% 29.96 in 0.8 mi SE 5.8 mph - 0.05 in Rain Heavy Rain
9:05 PM 59.0 °F 59.0 °F 100% 29.96 in 1.8 mi SE 4.6 mph - 0.02 in Rain Light Rain
9:51 PM 60.8 °F 60.8 °F 100% 29.96 in 0.5 mi SSE 6.9 mph - 0.04 in Fog , Rain Light Rain
9:56 PM 60.1 °F 60.1 °F 100% 29.95 in 0.5 mi SSE 6.9 mph - 0.04 in Fog , Rain Light Rain
10:20 PM 61.0 °F 61.0 °F 100% 29.95 in 0.2 mi South 5.8 mph - 0.00 in Fog Fog
10:44 PM 63.0 °F 63.0 °F 100% 29.95 in 0.5 mi South 6.9 mph - 0.00 in Fog Fog
10:56 PM 64.0 °F 64.0 °F 100% 29.95 in 0.5 mi South 10.4 mph - 0.00 in Fog Fog
11:11 PM 66.0 °F 66.0 °F 100% 29.94 in 2.0 mi South 15.0 mph 23.0 mph N/A   Overcast
11:20 PM 66.0 °F 66.0 °F 100% 29.94 in 6.0 mi South 17.3 mph - N/A   Overcast
11:46 PM 66.0 °F 66.0 °F 100% 29.94 in 1.8 mi South 12.7 mph - N/A   Overcast
11:56 PM 66.0 °F 66.0 °F 100% 29.93 in 1.2 mi South 12.7 mph - N/A   Overcast